This demonstration page uses our WeatherBlox Daily Observations layout. Learn more.

Left ArrowRight Arrow

44.89941, -97.11507

Hourly Observations for November 8, 2020

Temp ( °F °C ) Dew Point ( °F °C ) Humidity (%) Winds ( mph kmh ) Pressure ( in mb ) Visibility ( mi km ) Precip ( " mm )
12:53 am 00:53 Clear 60 15.6 52 11.1 75 75 SSE 25 41 29.58 1002 10 16 0.00 0.00
1:53 am 01:53 Clear 58 14.4 52 11.1 81 81 S 21 33 29.57 1002 10 16 0.00 0.00
2:53 am 02:53 Clear 58 14.4 52 11.1 81 81 S 25 41 29.57 1001 10 16 0.00 0.00
3:53 am 03:53 Clear 57 13.9 52 11.1 83 83 SSE 21 33 29.59 1002 10 16 0.00 0.00
4:53 am 04:53 Clear 56 13.3 51 10.6 84 84 SSE 20 31 29.60 1002 10 16 0.00 0.00
5:53 am 05:53 Clear 56 13.3 50 10 81 81 SSE 25 41 29.58 1002 10 16 0.00 0.00
6:53 am 06:53 Clear 56 13.3 48 8.9 75 75 SSE 30 48 29.59 1002 10 16 0.00 0.00
7:53 am 07:53 Sunny 56 13.3 48 8.9 75 75 S 29 46 29.61 1003 10 16 0.00 0.00
8:53 am 08:53 Sunny 58 14.4 48 8.9 70 70 S 28 44 29.60 1002 10 16 0.00 0.00
9:53 am 09:53 Sunny 61 16.1 50 10 67 67 S 31 50 29.58 1002 10 16 0.00 0.00
10:53 am 10:53 Sunny 64 17.8 50 10 60 60 SSE 36 57 29.56 1001 10 16 0.00 0.00
11:53 am 11:53 Sunny 67 19.4 51 10.6 57 57 S 37 59 29.54 1000 10 16 0.00 0.00
12:53 pm 12:53 Sunny 69 20.6 51 10.6 53 53 S 30 48 29.54 1000 10 16 0.00 0.00
1:53 pm 13:53 Cloudy 68 20 52 11.1 57 57 S 28 44 29.57 1001 10 16 0.00 0.00
2:53 pm 14:53 Cloudy 66 18.9 52 11.1 61 61 SSW 31 50 29.60 1002 10 16 0.00 0.00
3:53 pm 15:53 Mostly Cloudy 67 19.4 52 11.1 59 59 S 24 39 29.62 1003 10 16 0.00 0.00
4:53 pm 16:53 Mostly Cloudy 66 18.9 52 11.1 61 61 S 17 28 29.64 1004 10 16 0.00 0.00
5:15 pm 17:15 Cloudy with Light Rain 59 15 52 11.1 78 78 WSW 15 24 29.65 1004 9 14 0.02 0.51
5:53 pm 17:53 Cloudy 56 13.3 47 8.3 72 72 WSW 6 9 29.70 1006 10 16 0.02 0.51
6:53 pm 18:53 Cloudy 56 13.3 47 8.3 72 72 S 3 6 29.70 1006 10 16 0.00 0.00
7:50 pm 19:50 Cloudy with Heavy Rain 52 11 48 9 88 88 SW 9 15 29.75 1008 2 3 0.11 2.79
7:53 pm 19:53 Cloudy with Heavy Rain 52 11.1 49 9.4 89 89 SSW 7 11 29.75 1008 2 2 0.13 3.30
7:59 pm 19:59 Cloudy with Light Rain 52 11.1 49 9.4 89 89 SSW 5 7 29.74 1007 3 5 0.00 0.00
8:53 pm 20:53 Cloudy 51 10.6 49 9.4 92 92 SW 7 11 29.76 1008 10 16 0.04 1.02
9:53 pm 21:53 Cloudy with Light Rain 50 10 48 8.9 93 93 NNE 3 6 29.76 1008 10 16 0.00 0.00
10:53 pm 22:53 Cloudy 48 8.9 44 6.7 86 86 NNW 13 20 29.80 1009 10 16 0.01 0.25
11:53 pm 23:53 Cloudy 45 7.2 41 5 86 86 NNW 12 19 29.83 1010 10 16 0.00 0.00

Powered by AerisWeather